Location: Newark
(23.3970°S, 47.6010°W)
Time: 09:36:02
(UTC+00:00)

deb Explorer IX - Pass Details

Date: 20 February 2020
Orbit: 547 x 1101 km, 38.8° (Epoch: 28 March)

Event Time Altitude Azimuth Distance (km) Brightness Sun altitude
Rises 03:53:11 0° 254° (WSW) 3,871 - -54.8°
Reaches altitude 10° 03:56:31 10° 240° (WSW) 2,951 - -54.6°
Maximum altitude 04:02:17 24° 188° (S) 2,093 - -54.2°
Drops below altitude 10° 04:07:59 10° 136° (SE) 2,916 - -53.9°
Exits shadow 04:08:58 - 131° (SE) 3,169 ? -53.8°
Sets 04:11:16 0° 123° (ESE) 3,817 ? -53.6°
